Regional Weather Roundup
Issued by NWS

Home | Current Version | Previous Version | Text Only | Print | Product List | Glossary Off
Versions: 1 2 3 4 5 6 7 8 9 10 11 12 13 14 15 16 17 18 19 20 21 22 23 24 25 26 27 28 29 30 31 32 33 34 35 36 37 38 39 40 41 42 43 44 45 46 47 48 49 50

000
ASUS43 KOAX 212202
RWRNE

WEATHER ROUNDUP FOR NEBRASKA
NATIONAL WEATHER SERVICE OMAHA NE
400 PM CST SAT JAN 21 2017

NOTES: SATELLITE DATA IS BEING USED TO AUGMENT CLOUD COVER ABOVE
       12000 FEET.
       "FAIR" INDICATES FEW OR NO CLOUDS BELOW 12,000 FEET WITH NO
       SIGNIFICANT WEATHER AND/OR OBSTRUCTIONS TO VISIBILITY.

  * THESE STATIONS DO NOT REPORT WEATHER SUCH AS RAIN...SNOW OR FOG.

NEZ001>004-019>022-054>056-212300-
NEBRASKA PANHANDLE

CITY           SKY/WX    TMP DP  RH WIND       PRES   REMARKS
SCOTTSBLUFF    CLOUDY    42  29  59 CALM      29.42R
ALLIANCE       SUNNY     45  27  49 W7        29.41R
CHADRON        SUNNY     36  29  75 SW5       29.45R WCI  32
SIDNEY         CLOUDY    43  24  47 S3        29.42R
$$

NEZ057>060-069>072-079>082-212300-
SOUTHWEST NEBRASKA

CITY           SKY/WX    TMP DP  RH WIND       PRES   REMARKS
NORTH PLATTE   SUNNY     49  32  52 W5        29.44R
IMPERIAL       CLOUDY    47  27  45 NE5       29.43R
LEXINGTON      SUNNY     50  32  50 NW3       29.43R
MCCOOK         SUNNY     52  29  41 N3        29.42S
OGALLALA       CLOUDY    46  27  47 CALM      29.44R
$$

NEZ005>010-023>029-035>040-094-212300-
NORTH CENTRAL NEBRASKA

CITY           SKY/WX    TMP DP  RH WIND       PRES   REMARKS
VALENTINE      SUNNY     45  30  55 NW10      29.44R
AINSWORTH      MOSUNNY   46  33  60 NW7       29.43R
BROKEN BOW     SUNNY     50  36  58 CALM      29.42R
O`NEILL        SUNNY     50  31  48 NW10      29.43R
ORD            SUNNY     50  33  52 CALM      29.42R
THEDFORD       SUNNY     50  31  47 NW8       29.43R
$$

NEZ041-046>049-061>064-073>077-083>087-212300-
SOUTH CENTRAL NEBRASKA

CITY           SKY/WX    TMP DP  RH WIND       PRES   REMARKS
GRAND ISLAND   SUNNY     48  37  65 S3        29.44R
AURORA         SUNNY     50  38  64 SW5       29.44R
HASTINGS       SUNNY     50  39  66 W5        29.45R
HEBRON         SUNNY     51  39  63 CALM      29.45R
HOLDREGE       SUNNY     49  37  61 CALM      29.43R
KEARNEY *      SUNNY    N/A N/A N/A MISG        N/A
YORK           SUNNY     50  39  66 SW6       29.45R
$$

NEZ011>018-030>034-042>045-212300-
NORTHEAST NEBRASKA

CITY           SKY/WX    TMP DP  RH WIND       PRES   REMARKS
NORFOLK        SUNNY     49  34  56 W6        29.43R
ALBION         SUNNY     50  10  20 SW7       29.43S
BLAIR          SUNNY     50  40  69 SW10      29.44S
FREMONT        SUNNY     50  39  65 W7        29.45S
TEKAMAH        MOSUNNY   49  39  68 SW10      29.45R
WAYNE          SUNNY     47  38  69 W8        29.44R
$$

NEZ050>053-065>068-078-088>093-212300-
SOUTHEAST NEBRASKA

CITY           SKY/WX    TMP DP  RH WIND       PRES   REMARKS
LINCOLN        SUNNY     53  38  56 W6        29.46R
OMAHA EPPLEY   MOSUNNY   52  37  56 W9        29.45R
BEATRICE       SUNNY     53  40  61 CALM      29.46R
FALLS CITY     SUNNY     54  39  57 SW7       29.46R
NEBRASKA CITY  SUNNY     51  36  55 W6        29.46R
PLATTSMOUTH    SUNNY     51  37  57 SW9       29.46R
$$

NEZ044-045-051>053-067-212300-
OMAHA AREA

CITY           SKY/WX    TMP DP  RH WIND       PRES   REMARKS
OMAHA EPPLEY   MOSUNNY   52  37  56 W9        29.45R
BLAIR          SUNNY     50  40  69 SW10      29.44S
FREMONT        SUNNY     50  39  65 W7        29.45S
MILLARD        SUNNY     53  40  62 W8        29.45R
OFFUTT AFB     SUNNY     52  41  64 W8        29.45R
PLATTSMOUTH    SUNNY     51  37  57 SW9       29.46R
WAHOO          FAIR      51  39  64 W8        29.45R
$$




USA.gov is the U.S. government's official web portal to all federal, state and local government web resources and services.